Home   Weather   Scottsdale   Past weeks

Flag for USA Past Weather in Scottsdale, Arizona, USA — Yesterday and Last 2 Weeks

Now
52 °F

Mostly cloudy.


Feels Like: 52 °F
Forecast: 49 / 57 °F
Wind: No wind

Location: Scottsdale Airport

Current Time: Feb 28, 2017 at 10:03:44 am

Latest Report: Feb 28, 2017 at 8:53 am


Visibility: 10 mi

Pressure: 29.94 "Hg

Humidity: 86%

Dew Point: 48 °F

Location of ScottsdaleLocation

Past Weather in Scottsdale — Graph

°F

Scottsdale Temperature Yesterday

Maximum temperature yesterday: 61 °F (at 11:53 am)
Minimum temperature yesterday: 47 °F (at 5:53 am)
Average temperature yesterday: 54 °F

High & Low Weather Summary for the Past Weeks

 TemperatureHumidityPressure
High75 °F (Feb 22, 2:53 pm)97% (Feb 19, 4:53 am)30.30 "Hg (Feb 19, 4:53 am)
Low39 °F (Feb 25, 4:53 am)15% (Feb 25, 3:53 pm)29.49 "Hg (Feb 18, 1:53 pm)
Average58 °F53%29.95 "Hg
* Reported Feb 13 7:53 am — Feb 28 7:53 am, Scottsdale, Weather by CustomWeather, © 2017

Note: Actual official high and low records may vary slightly from our data, if they occured in-between our weather recording intervals... More about our weather records

Advertising

Scottsdale Weather History for the Previous 24 Hours

Scroll right to see more
 ConditionsComfort  
Time TempWeatherWind HumidityBarometerVisibility
7:53 am
Tue, Feb 28
52 °FRain. Fog.5 mph89%29.90 "Hg3 mi
7:37 am52 °FHeavy rain. Fog.13 mph93%29.91 "Hg1 mi
6:53 am52 °FRain. Fog.No wind97%29.86 "Hg3 mi
5:53 am52 °FMostly cloudy.No wind97%29.82 "Hg10 mi
4:53 am52 °FOvercast.3 mph93%29.80 "Hg10 mi
3:53 am52 °FMostly cloudy.3 mph97%29.79 "Hg10 mi
2:53 am52 °FMostly cloudy.No wind93%29.80 "Hg10 mi
1:53 am52 °FPassing clouds.No wind93%29.78 "Hg10 mi
12:53 am52 °FPassing clouds.No wind93%29.81 "Hg10 mi
11:53 pm
Mon, Feb 27
52 °FPassing clouds.3 mph97%29.82 "Hg10 mi
11:23 pm53 °FPartly cloudy.No wind89%29.87 "Hg10 mi
10:53 pm53 °FMostly cloudy.No wind89%29.83 "Hg10 mi
10:25 pm52 °FMostly cloudy.No wind93%29.86 "Hg10 mi
9:43 pm52 °FLight rain. Fog.3 mph93%29.89 "Hg6 mi
9:00 pm52 °FRain. Fog.No wind93%29.91 "Hg4 mi
7:53 pm54 °FLight rain. Mostly cloudy.No wind83%29.86 "Hg6 mi
6:53 pm55 °FLight rain. Mostly cloudy.5 mph80%29.84 "Hg10 mi
5:53 pm55 °FLight rain. Overcast.3 mph83%29.85 "Hg10 mi
4:53 pm56 °FLight rain. Overcast.7 mph77%29.85 "Hg10 mi
3:53 pm60 °FOvercast.3 mph58%29.83 "Hg10 mi
2:53 pm60 °FLight rain. Overcast.6 mph56%29.86 "Hg10 mi
1:53 pm61 °FLight rain. Overcast.3 mph42%29.88 "Hg10 mi
12:53 pm61 °FOvercast.7 mph42%29.92 "Hg10 mi
11:53 am61 °FOvercast.6 mph42%29.94 "Hg10 mi
10:53 am59 °FScattered clouds.7 mph46%29.96 "Hg10 mi
Weather by CustomWeather, © 2017

See weather overviewHow to use our weather pages